• In Portugal
  • List of Countries
  • For 7 days
  • Water Temperature
  • Satellite Maps
  • Weather Map
  • Weather Widgets
  • user-avatar
    Login

    Hourly Weather Macapa

    Today, 20 September, Wednesday

    Time Temperature Precipitation Wind Pressure Humidity
    00:00 +27°C° 0.3 mm 3 mps 760 mmHg 92%
    01:00 +26°C° 0.3 mm 2 mps 759 mmHg 93%
    02:00 +26°C° 0.3 mm 2 mps 759 mmHg 95%
    03:00 +26°C° 0.3 mm 2 mps 759 mmHg 96%
    04:00 +26°C° 0 mm 2 mps 759 mmHg 96%
    05:00 +26°C° 0 mm 2 mps 759 mmHg 96%
    06:00 +26°C° 0 mm 2 mps 759 mmHg 97%
    07:00 +27°C° 0 mm 2 mps 759 mmHg 90%
    08:00 +29°C° 0 mm 2 mps 759 mmHg 82%
    09:00 +31°C° 0 mm 2 mps 760 mmHg 75%
    10:00 +34°C° 0 mm 2 mps 759 mmHg 65%
    11:00 +36°C° 0 mm 2 mps 759 mmHg 54%
    12:00 +38°C° 0 mm 2 mps 759 mmHg 44%
    13:00 +38°C° 0.1 mm 2 mps 758 mmHg 44%
    14:00 +38°C° 0.1 mm 3 mps 757 mmHg 43%
    15:00 +38°C° 0.1 mm 3 mps 756 mmHg 43%
    16:00 +37°C° 0 mm 3 mps 757 mmHg 50%
    17:00 +35°C° 0 mm 3 mps 757 mmHg 56%
    18:00 +33°C° 0 mm 4 mps 757 mmHg 63%
    19:00 +32°C° 0.2 mm 4 mps 758 mmHg 70%
    20:00 +29°C° 0.2 mm 4 mps 758 mmHg 78%
    21:00 +28°C° 0.2 mm 4 mps 759 mmHg 85%
    22:00 +28°C° 0.2 mm 4 mps 759 mmHg 86%
    23:00 +27°C° 0.2 mm 4 mps 759 mmHg 87%

    Tomorrow, 21 September, Thursday

    Time Temperature Precipitation Wind Pressure Humidity
    00:00 +27°C° 0.2 mm 3 mps 759 mmHg 87%
    01:00 +27°C° 0 mm 3 mps 759 mmHg 89%
    02:00 +27°C° 0 mm 3 mps 758 mmHg 90%
    03:00 +26°C° 0 mm 2 mps 757 mmHg 91%
    04:00 +26°C° 0 mm 2 mps 757 mmHg 92%
    05:00 +26°C° 0 mm 2 mps 757 mmHg 93%
    06:00 +26°C° 0 mm 2 mps 757 mmHg 95%
    07:00 +28°C° 0 mm 2 mps 758 mmHg 87%
    08:00 +29°C° 0 mm 2 mps 759 mmHg 80%
    09:00 +31°C° 0 mm 3 mps 759 mmHg 72%
    10:00 +33°C° 0 mm 3 mps 759 mmHg 66%
    11:00 +35°C° 0 mm 4 mps 759 mmHg 60%
    12:00 +36°C° 0 mm 4 mps 759 mmHg 54%
    13:00 +36°C° 0.9 mm 4 mps 758 mmHg 59%
    14:00 +35°C° 0.9 mm 4 mps 758 mmHg 64%
    15:00 +34°C° 0.9 mm 4 mps 757 mmHg 69%
    16:00 +33°C° 1.5 mm 3 mps 757 mmHg 75%
    17:00 +30°C° 1.5 mm 3 mps 757 mmHg 81%
    18:00 +28°C° 1.5 mm 3 mps 757 mmHg 87%
    19:00 +28°C° 0 mm 3 mps 758 mmHg 88%
    20:00 +27°C° 0 mm 3 mps 758 mmHg 89%
    21:00 +27°C° 0 mm 3 mps 759 mmHg 91%
    22:00 +27°C° 0 mm 3 mps 759 mmHg 90%
    23:00 +27°C° 0 mm 3 mps 759 mmHg 90%

    Day after tomorrow, 22 September, Friday

    Time Temperature Precipitation Wind Pressure Humidity
    00:00 +27°C° 0 mm 3 mps 759 mmHg 90%
    01:00 +27°C° 0 mm 3 mps 758 mmHg 90%
    02:00 +27°C° 0 mm 3 mps 757 mmHg 90%
    03:00 +27°C° 0 mm 3 mps 757 mmHg 91%
    04:00 +26°C° 0 mm 3 mps 757 mmHg 92%
    05:00 +26°C° 0 mm 3 mps 757 mmHg 92%
    06:00 +26°C° 0 mm 2 mps 757 mmHg 93%
    07:00 +28°C° 0 mm 3 mps 758 mmHg 86%
    08:00 +29°C° 0 mm 3 mps 758 mmHg 79%
    09:00 +32°C° 0 mm 4 mps 759 mmHg 72%
    10:00 +32°C° 0.2 mm 4 mps 759 mmHg 70%
    11:00 +33°C° 0.2 mm 4 mps 759 mmHg 67%
    12:00 +33°C° 0.2 mm 4 mps 759 mmHg 65%
    13:00 +33°C° 0.6 mm 4 mps 758 mmHg 68%
    14:00 +33°C° 0.6 mm 4 mps 757 mmHg 71%
    15:00 +32°C° 0.6 mm 4 mps 757 mmHg 74%
    16:00 +32°C° 0.5 mm 4 mps 757 mmHg 78%
    17:00 +30°C° 0.5 mm 3 mps 757 mmHg 81%
    18:00 +29°C° 0.5 mm 3 mps 757 mmHg 85%
    19:00 +28°C° 0.1 mm 3 mps 758 mmHg 87%
    20:00 +27°C° 0.1 mm 3 mps 758 mmHg 89%
    21:00 +27°C° 0.1 mm 3 mps 759 mmHg 91%
    22:00 +26°C° 0.2 mm 3 mps 759 mmHg 92%
    23:00 +26°C° 0.2 mm 3 mps 759 mmHg 93%

    23 September, Saturday

    Time Temperature Precipitation Wind Pressure Humidity
    00:00 +26°C° 0.2 mm 3 mps 759 mmHg 94%
    01:00 +26°C° 0.2 mm 3 mps 758 mmHg 94%
    02:00 +26°C° 0.2 mm 3 mps 758 mmHg 93%
    03:00 +26°C° 0.2 mm 3 mps 757 mmHg 93%
    04:00 +26°C° 0 mm 3 mps 757 mmHg 93%
    05:00 +26°C° 0 mm 3 mps 757 mmHg 93%
    06:00 +26°C° 0 mm 3 mps 757 mmHg 93%
    07:00 +27°C° 0 mm 3 mps 758 mmHg 86%
    08:00 +29°C° 0 mm 4 mps 759 mmHg 79%
    09:00 +32°C° 0 mm 4 mps 759 mmHg 72%
    10:00 +33°C° 0 mm 4 mps 759 mmHg 63%
    11:00 +35°C° 0 mm 4 mps 759 mmHg 54%
    12:00 +37°C° 0 mm 5 mps 758 mmHg 45%
    13:00 +37°C° 0 mm 5 mps 757 mmHg 44%
    14:00 +37°C° 0 mm 5 mps 757 mmHg 42%
    15:00 +37°C° 0 mm 5 mps 756 mmHg 40%
    16:00 +35°C° 0 mm 4 mps 756 mmHg 46%
    17:00 +34°C° 0 mm 4 mps 757 mmHg 52%
    18:00 +31°C° 0 mm 3 mps 757 mmHg 58%
    19:00 +30°C° 0 mm 3 mps 757 mmHg 64%
    20:00 +29°C° 0 mm 3 mps 758 mmHg 71%
    21:00 +27°C° 0 mm 3 mps 759 mmHg 77%
    22:00 +27°C° 0 mm 3 mps 759 mmHg 81%
    23:00 +26°C° 0 mm 3 mps 758 mmHg 85%

    24 September, Sunday

    Time Temperature Precipitation Wind Pressure Humidity
    00:00 +26°C° 0 mm 3 mps 758 mmHg 89%
    01:00 +25°C° 0 mm 2 mps 758 mmHg 91%
    02:00 +25°C° 0 mm 2 mps 758 mmHg 93%
    03:00 +25°C° 0 mm 2 mps 757 mmHg 95%
    04:00 +25°C° 0 mm 2 mps 757 mmHg 95%
    05:00 +25°C° 0 mm 2 mps 757 mmHg 96%
    06:00 +24°C° 0 mm 2 mps 758 mmHg 96%
    07:00 +26°C° 0 mm 2 mps 758 mmHg 87%
    08:00 +28°C° 0 mm 3 mps 759 mmHg 78%
    09:00 +30°C° 0 mm 3 mps 759 mmHg 69%
    10:00 +33°C° 0 mm 3 mps 758 mmHg 60%
    11:00 +35°C° 0 mm 3 mps 758 mmHg 52%
    12:00 +37°C° 0 mm 3 mps 757 mmHg 43%
    13:00 +37°C° 0 mm 3 mps 757 mmHg 40%
    14:00 +38°C° 0 mm 4 mps 756 mmHg 37%
    15:00 +38°C° 0 mm 4 mps 755 mmHg 34%
    16:00 +36°C° 0 mm 4 mps 755 mmHg 41%
    17:00 +34°C° 0 mm 3 mps 756 mmHg 47%
    18:00 +31°C° 0 mm 3 mps 756 mmHg 54%
    19:00 +30°C° 0 mm 3 mps 756 mmHg 61%
    20:00 +29°C° 0 mm 3 mps 757 mmHg 68%
    21:00 +28°C° 0 mm 4 mps 758 mmHg 75%
    22:00 +27°C° 0 mm 4 mps 758 mmHg 80%
    23:00 +27°C° 0 mm 3 mps 758 mmHg 84%

    25 September, Monday

    Time Temperature Precipitation Wind Pressure Humidity
    00:00 +26°C° 0 mm 3 mps 758 mmHg 88%
    01:00 +26°C° 0 mm 3 mps 758 mmHg 90%
    02:00 +26°C° 0 mm 3 mps 757 mmHg 91%
    03:00 +25°C° 0 mm 3 mps 757 mmHg 93%
    04:00 +25°C° 0 mm 3 mps 757 mmHg 93%
    05:00 +25°C° 0 mm 3 mps 757 mmHg 94%
    06:00 +25°C° 0 mm 2 mps 758 mmHg 95%
    07:00 +27°C° 0 mm 3 mps 758 mmHg 86%
    08:00 +29°C° 0 mm 3 mps 758 mmHg 77%
    09:00 +31°C° 0 mm 3 mps 759 mmHg 68%
    10:00 +34°C° 0 mm 3 mps 758 mmHg 60%
    11:00 +36°C° 0 mm 3 mps 758 mmHg 51%
    12:00 +38°C° 0 mm 3 mps 757 mmHg 43%
    13:00 +38°C° 0 mm 3 mps 757 mmHg 41%
    14:00 +38°C° 0 mm 3 mps 756 mmHg 39%
    15:00 +40°C° 0 mm 4 mps 755 mmHg 37%
    16:00 +37°C° 0 mm 4 mps 755 mmHg 44%
    17:00 +35°C° 0 mm 4 mps 755 mmHg 50%
    18:00 +33°C° 0 mm 4 mps 755 mmHg 57%
    19:00 +32°C° 0 mm 4 mps 756 mmHg 64%
    20:00 +30°C° 0 mm 4 mps 757 mmHg 71%
    21:00 +28°C° 0 mm 4 mps 757 mmHg 79%
    22:00 +28°C° 0 mm 3 mps 757 mmHg 81%
    23:00 +27°C° 0 mm 3 mps 757 mmHg 84%
    Show more